AL7BX-WX Weather Reports


time (UTC)temp
C
wind
direction
speed
KPH
gust
KPH
rain 1hr
cm
rain 24hr
cm
rain mn
cm
humidity
%
barometer
mb
20260508104503 8 0 0.0 0.0 0.00 0.00 0.00 46
20260508103603 9 260 0.0 3.2 0.00 0.00 0.00 45
20260508102703 10 261 3.2 6.4 0.00 0.00 0.00 42
20260508101803 12 198 1.6 8.0 0.00 0.00 0.00 41
20260508101114 13 159 1.6 4.8 0.00 0.00 0.00 34
20260508100003 13 140 3.2 6.4 0.00 0.00 0.00 33
20260508095403 13 123 3.2 8.0 0.00 0.00 0.00 33
20260508094503 13 137 4.8 8.0 0.00 0.00 0.00 33
20260508093814 13 132 3.2 8.0 0.00 0.00 0.00 33
20260508092703 12 132 3.2 6.4 0.00 0.00 0.00 34
20260508091803 13 132 3.2 6.4 0.00 0.00 0.00 34
20260508090903 13 130 3.2 6.4 0.00 0.00 0.00 34
20260508090003 12 127 3.2 6.4 0.00 0.00 0.00 35
20260508085404 13 126 3.2 6.4 0.00 0.00 0.00 34
20260508084714 13 124 3.2 6.4 0.00 0.00 0.00 34
20260508083603 13 123 3.2 4.8 0.00 0.00 0.00 35
20260508082913 13 123 3.2 6.4 0.00 0.00 0.00 34
20260508081803 13 171 3.2 8.0 0.00 0.00 0.00 33
20260508080903 13 180 3.2 4.8 0.00 0.00 0.00 34
20260508080003 13 182 3.2 6.4 0.00 0.00 0.00 34
20260508075403 12 182 3.2 6.4 0.00 0.00 0.00 35
20260508074713 12 182 1.6 4.8 0.00 0.00 0.00 36
20260508073603 12 182 1.6 4.8 0.00 0.00 0.00 38
20260508072703 12 182 1.6 4.8 0.00 0.00 0.00 37
20260508071803 12 182 1.6 4.8 0.00 0.00 0.00 37
20260508070903 13 182 1.6 6.4 0.00 0.00 0.00 35
20260508070004 13 182 1.6 4.8 0.00 0.00 0.00 33
20260508065403 13 182 1.6 4.8 0.00 0.00 0.00 34
20260508064503 13 183 3.2 6.4 0.00 0.00 0.00 34
20260508063603 12 202 1.6 6.4 0.00 0.00 0.00 35
20260508062703 13 203 1.6 6.4 0.00 0.00 0.00 33
20260508061803 13 205 1.6 6.4 0.00 0.00 0.00 33
20260508060903 13 212 3.2 9.7 0.00 0.00 0.00 32
20260508060006 13 146 1.6 6.4 0.00 0.00 0.00 32
20260508055403 13 146 1.6 6.4 0.00 0.00 0.00 33
20260508054503 14 146 1.6 6.4 0.00 0.00 0.00 32
20260508053603 14 146 3.2 6.4 0.00 0.00 0.00 33
20260508052703 15 146 1.6 6.4 0.00 0.00 0.00 30
20260508051803 15 146 3.2 6.4 0.00 0.00 0.00 31
20260508050903 15 146 3.2 4.8 0.00 0.00 0.00 31
20260508050003 16 146 1.6 4.8 0.00 0.00 0.00 29
20260508045403 16 146 3.2 6.4 0.00 0.00 0.00 28
20260508044503 17 146 3.2 6.4 0.00 0.00 0.00 26
20260508043603 17 146 4.8 11.3 0.00 0.00 0.00 25
20260508042703 17 135 1.6 6.4 0.00 0.00 0.00 26
20260508041803 17 134 1.6 6.4 0.00 0.00 0.00 26
20260508040903 18 156 3.2 9.7 0.00 0.00 0.00 26
20260508040213 18 195 3.2 8.0 0.00 0.00 0.00 26
20260508035612 18 195 4.8 9.7 0.00 0.00 0.00 26
20260508034503 18 184 3.2 9.7 0.00 0.00 0.00 26
20260508033603 18 192 4.8 9.7 0.00 0.00 0.00 26
20260508032912 18 180 4.8 16.1 0.00 0.00 0.00 25
20260508032014 18 176 4.8 11.3 0.00 0.00 0.00 26
20260508031113 18 230 3.2 11.3 0.00 0.00 0.00 25
20260508030004 20 203 4.8 14.5 0.00 0.00 0.00 25
20260508025403 20 196 8.0 17.7 0.00 0.00 0.00 24
20260508024503 20 185 9.7 19.3 0.00 0.00 0.00 23
20260508023603 21 179 6.4 16.1 0.00 0.00 0.00 22
20260508022703 21 164 4.8 24.1 0.00 0.00 0.00 22
20260508021803 21 182 4.8 12.9 0.00 0.00 0.00 23
20260508021113 21 172 4.8 14.5 0.00 0.00 0.00 22
20260508020004 21 164 6.4 14.5 0.00 0.00 0.00 22
20260508015403 21 165 6.4 14.5 0.00 0.00 0.00 22
20260508014713 21 163 4.8 14.5 0.00 0.00 0.00 22
20260508013603 21 175 4.8 11.3 0.00 0.00 0.00 23
20260508012914 21 178 4.8 11.3 0.00 0.00 0.00 23
20260508011803 21 194 6.4 14.5 0.00 0.00 0.00 23
20260508010903 21 193 4.8 11.3 0.00 0.00 0.00 22
20260508010003 22 198 4.8 11.3 0.00 0.00 0.00 22
20260508005613 22 199 4.8 8.0 0.00 0.00 0.00 23
20260508004503 23 192 4.8 11.3 0.00 0.00 0.00 21
20260508003814 23 177 6.4 16.1 0.00 0.00 0.00 21
20260508002703 24 181 4.8 14.5 0.00 0.00 0.00 20
20260508001803 23 215 6.4 22.5 0.00 0.00 0.00 21
20260508000903 23 188 4.8 22.5 0.00 0.00 0.00 21
20260508000003 24 220 3.2 16.1 0.00 0.00 0.00 20
20260507235403 24 248 4.8 9.7 0.00 0.00 0.00 20
20260507234503 25 249 9.7 22.5 0.00 0.00 0.00 18
20260507233603 25 256 12.9 22.5 0.00 0.00 0.00 20
20260507232913 26 274 9.7 20.9 0.00 0.00 0.00 19
20260507231803 26 274 11.3 24.1 0.00 0.00 0.00 21
20260507230903 25 290 11.3 24.1 0.00 0.00 0.00 21
20260507230004 25 348 4.8 19.3 0.00 0.00 0.00 19
20260507225613 25 24 3.2 19.3 0.00 0.00 0.00 21
20260507224504 24 5 12.9 25.7 0.00 0.00 0.00 20
20260507223603 24 359 11.3 25.7 0.00 0.00 0.00 21
20260507222703 25 316 14.5 24.1 0.00 0.00 0.00 22
20260507221803 25 339 6.4 19.3 0.00 0.00 0.00 24
20260507220903 24 341 8.0 19.3 0.00 0.00 0.00 21
20260507220003 25 315 6.4 17.7 0.00 0.00 0.00 22
20260507215403 25 306 6.4 17.7 0.00 0.00 0.00 20
20260507214503 25 314 8.0 14.5 0.00 0.00 0.00 20
20260507213603 25 293 8.0 19.3 0.00 0.00 0.00 23
20260507212703 25 187 4.8 9.7 0.00 0.00 0.00 21
20260507211803 24 257 4.8 12.9 0.00 0.00 0.00 21
20260507210903 24 293 4.8 14.5 0.00 0.00 0.00 24
20260507210003 24 298 3.2 9.7 0.00 0.00 0.00 20
20260507205403 24 298 8.0 16.1 0.00 0.00 0.00 25
20260507204503 24 321 6.4 16.1 0.00 0.00 0.00 22
20260507203813 24 309 3.2 11.3 0.00 0.00 0.00 23
20260507202703 23 254 3.2 14.5 0.00 0.00 0.00 23
20260507201803 23 255 4.8 14.5 0.00 0.00 0.00 20
20260507201113 23 268 4.8 11.3 0.00 0.00 0.00 23
20260507200003 23 1 3.2 11.3 0.00 0.00 0.00 21
20260507195403 23 329 4.8 11.3 0.00 0.00 0.00 22
20260507194713 23 325 4.8 17.7 0.00 0.00 0.00 25
20260507193603 23 331 3.2 9.7 0.00 0.00 0.00 24
20260507192703 23 268 4.8 20.9 0.00 0.00 0.00 24
20260507191803 22 217 4.8 16.1 0.00 0.00 0.00 23
20260507190903 23 262 3.2 9.7 0.00 0.00 0.00 23
20260507190004 22 281 3.2 11.3 0.00 0.00 0.00 23
20260507185613 22 269 1.6 9.7 0.00 0.00 0.00 27
20260507184503 22 265 3.2 8.0 0.00 0.00 0.00 24
20260507183603 22 257 4.8 11.3 0.00 0.00 0.00 27
20260507182703 21 289 3.2 6.4 0.00 0.00 0.00 27
20260507181803 21 295 4.8 16.1 0.00 0.00 0.00 28
20260507180903 21 276 4.8 16.1 0.00 0.00 0.00 30
20260507180003 21 282 6.4 14.5 0.00 0.00 0.00 26
20260507175403 21 298 6.4 9.7 0.00 0.00 0.00 27
20260507174503 21 279 4.8 12.9 0.00 0.00 0.00 30
20260507173603 21 265 3.2 12.9 0.00 0.00 0.00 30
20260507172703 20 243 4.8 11.3 0.00 0.00 0.00 27
20260507171803 20 255 3.2 9.7 0.00 0.00 0.00 31
20260507170903 19 267 3.2 9.7 0.00 0.00 0.00 27
20260507170003 18 289 3.2 8.0 0.00 0.00 0.00 30
20260507165403 18 293 3.2 8.0 0.00 0.00 0.00 32
20260507164503 18 182 3.2 6.4 0.00 0.00 0.00 32
20260507163603 17 124 3.2 8.0 0.00 0.00 0.00 30
20260507162703 17 29 3.2 6.4 0.00 0.00 0.00 30
20260507161803 16 360 1.6 4.8 0.00 0.00 0.00 34
20260507160903 16 360 3.2 6.4 0.00 0.00 0.00 34
20260507160003 15 360 3.2 6.4 0.00 0.00 0.00 37
20260507155403 15 360 3.2 6.4 0.00 0.00 0.00 37
20260507154504 14 360 3.2 8.0 0.00 0.00 0.00 36
20260507153603 13 360 3.2 8.0 0.00 0.00 0.00 38
20260507152703 13 360 6.4 9.7 0.00 0.00 0.00 38
20260507151803 13 360 6.4 14.5 0.00 0.00 0.00 39
20260507150903 13 357 3.2 11.3 0.00 0.00 0.00 41
20260507150214 12 348 1.6 4.8 0.00 0.00 0.00 39
20260507145403 11 348 1.6 4.8 0.00 0.00 0.00 41
20260507144503 11 348 1.6 6.4 0.00 0.00 0.00 44
20260507143603 9 348 1.6 6.4 0.00 0.00 0.00 46
20260507142703 8 348 3.2 6.4 0.00 0.00 0.00 48
20260507141803 7 344 1.6 9.7 0.00 0.00 0.00 49
20260507140903 5 306 3.2 9.7 0.00 0.00 0.00 55
20260507140003 5 297 3.2 6.4 0.00 0.00 0.00 61
20260507135403 4 297 3.2 6.4 0.00 0.00 0.00 63
20260507134503 3 300 1.6 4.8 0.00 0.00 0.00 66
20260507133603 2 303 0.0 3.2 0.00 0.00 0.00 63
20260507132913 2 297 0.0 3.2 0.00 0.00 0.00 63
20260507131803 2 0 0.0 0.0 0.00 0.00 0.00 60
20260507130903 2 0 0.0 0.0 0.00 0.00 0.00 58
20260507130003 2 0 0.0 0.0 0.00 0.00 0.00 60
20260507125403 1 0 0.0 0.0 0.00 0.00 0.00 59
20260507124503 1 297 0.0 1.6 0.00 0.00 0.00 58
20260507123603 1 297 0.0 3.2 0.00 0.00 0.00 57
20260507122705 1 297 0.0 1.6 0.00 0.00 0.00 57
20260507121803 1 0 0.0 0.0 0.00 0.00 0.00 56
20260507120903 1 297 0.0 1.6 0.00 0.00 0.00 56
20260507120004 1 297 0.0 3.2 0.00 0.00 0.00 57
20260507115403 1 297 0.0 3.2 0.00 0.00 0.00 57
20260507114503 1 0 0.0 0.0 0.00 0.00 0.00 57
20260507113603 1 297 0.0 1.6 0.00 0.00 0.00 56
20260507112703 2 297 1.6 4.8 0.00 0.00 0.00 55
20260507111803 2 297 0.0 3.2 0.00 0.00 0.00 55
20260507110903 2 0 0.0 0.0 0.00 0.00 0.00 53
20260507110003 2 0 0.0 0.0 0.00 0.00 0.00 52
20260507105403 2 297 0.0 3.2 0.00 0.00 0.00 52